SCP
0 0 0 0 0 0 0 0 0 0 0 0 0 0 0 0 0 0 0 0 0 0 0 0 0 0 0 0 0 0 0 0 0 0 0 0 0 0 0 0 0 0 0 0
0 0 0 0 0 0 0 0 0 0 0 0 0 0 0 0 0 0 0 0 0 0 0 0 0 0 0 0 0 0 0 0 0 0 0 0 0 0 0 0 0 0 0 0
0 0 0 0 0 0 0 0 0 0 0 0 0 0 0 0 0 0 0 0 0 0 0 0 0 0 0 0 0 0 0 0 0 0 0 0 0 0 0 0 0 0 0 0
0 0 0 0 0 0 0 0 0 0 0 0 0 0 0 0 0 0 0 0 0 0 0 0 0 0 0 0 0 0 0 0 0 0 0 0 0 0 0 0 0 0 0 0
0 0 0 0 0 0 0 0 0 0 0 0 0 0 0 0 0 0 0 0 0 0 0 0 0 0 -0 0 0 0 0 0 0 0 0 0 0 0 0 0 0 0 0 0
0 0 0 0 0 0 0 0 0 0 0 0 0 0 0 0 0 0 0 0 0 0 0 0 0 0 0 0 0 0 -0 0 0 0 0 0 0 0 0 0 0 0 0 0
0 0 0 0 0 0 0 0 0 0 0 0 0 0 0 0 0 0 0 0 0 0 0 0 0 0 0 0 0 0 0 0 0 0 -0 -0 0 0 0 0 0 0 0 0
0 0 0 0 0 0 0 0 0 0 0 0 0 0 0 0 0 0 0 0 0 0 0 0 0 0 0 0 0 0 0 0 0 0 0 0 0 0 -0 0 0 0 0 0
0 0 0 0 0 0 0 0 0 0 0 0 0 0 0 0 0 0 0 0 0 0 0 0 0 0 0 0 0 0 0 0 0 0 0 0 0 0 0 0 0 0 0 0
0 0 0 0 0 0 0 0 0 0 0 0 0 0 0 0 0 0 0 0 0 0 0 0 0 0 0 0 0 0 0 0 0 0 0 0 0 0 -0 0 0 0 -0 -0
0 0 0 0 0 0 0 0 0 0 0 0 0 0 0 0 0 0 0 0 0 0 0 0 0 0 0 0 0 0 0 0 0 0 0 0 0 0 0 -0 -0 -0 -0 -0
0 0 0 0 0 0 0 0 0 0 0 0 0 0 0 0 0 0 0 0 0 0 0 0 0 0 0 0 0 0 0 0 0 0 0 0 0 -0 -0 -0 -0 -0 -0 -0
0 0 0 0 0 0 0 0 0 0 0 0 0 0 0 0 0 0 0 0 0 0 0 0 0 0 0 0 0 0 0 0 0 0 0 0 0 0 0 0 -0 -0 -0 -0
0 0 0 0 0 0 0 0 0 0 0 0 0 0 0 0 0 0 0 0 0 0 0 0 0 0 0 0 0 0 0 0 0 0 0 0 0 0 0 0 -0 -0 -0 -0
0 0 0 0 0 0 0 0 0 0 0 0 0 0 0 0 0 0 0 0 0 0 0 0 0 0 0 0 0 0 0 0 0 0 0 0 0 0 0 0 0 0 0 0
0 0 0 0 0 0 0 0 0 0 0 0 0 0 0 0 0 0 0 0 0 0 0 0 0 0 0 0 0 0 0 0 0 0 0 0 0 0 0 0 0 0 0 0
-0 0 0 0 0 0 0 0 0 0 0 0 0 0 0 0 0 0 0 0 0 0 0 0 0 0 0 0 0 0 0 0 0 0 0 0 0 0 0 0 0 0 0 0
0 0 0 0 0 0 0 0 0 0 0 0 0 0 0 0 0 0 0 0 0 0 0 0 0 0 0 0 0 0 0 0 0 0 0 0 0 0 0 0 0 0 0 0
0 0 0 0 0 0 0 0 0 0 0 0 0 0 0 0 0 0 0 0 0 0 0 0 0 0 0 0 0 0 0 0 0 0 0 0 0 0 0 0 0 0 0 0
0 0 0 0 0 0 0 0 0 0 0 0 0 0 0 0 0 0 0 0 0 0 0 0 0 0 0 0 0 0 0 0 0 0 0 0 0 0 0 0 0 0 0 0
0 0 0 0 0 0 0 0 0 0 0 0 0 0 0 0 0 0 0 0 0 0 0 0 0 0 0 0 0 0 0 0 0 0 0 0 0 0 0 0 0 0 0 0
0 0 0 0 0 0 0 0 0 0 0 0 0 0 0 0 0 0 0 0 0 0 0 0 0 0 0 0 0 0 0 0 0 0 0 0 0 0 0 0 -0 -0 -0 -0
0 0 0 0 0 0 0 0 0 0 0 0 0 0 0 0 0 0 0 0 0 0 0 0 0 0 0 0 0 0 0 0 0 0 0 0 0 0 -0 -0 -0 -0 -0 -0
0 0 0 0 0 0 0 0 0 0 0 0 0 0 0 0 0 0 0 0 0 0 0 0 0 0 0 0 0 0 0 0 0 0 0 0 0 -0 -0 -0 -0 -0 -0 0
0 0 0 0 0 0 0 0 0 0 0 0 0 0 0 0 0 0 0 0 0 0 0 0 0 0 0 0 0 0 0 0 0 0 -0 -0 -0 -0 0 0 0 -0 0 0
0 0 0 0 0 0 0 0 0 0 0 0 0 0 0 0 0 0 0 0 0 0 0 0 0 0 0 0 0 0 0 0 0 -0 -0 -0 -0 0 0 0 -0 0 0 0
0 0 0 0 0 0 0 0 0 0 0 0 0 0 0 0 0 0 0 0 0 0 0 0 0 0 0 0 0 0 0 -0 -0 -0 -0 0 0 0 0 -0 -0 -0 0 0
Wind_Speed_500mb
22 26 27 29 35 33 28 20 9 20 40 17 12 25 11 12 13 31 23 12 21 30 26 24 23 17 22 14 4 10 13 10 12 33 21 9 13 31 32 19 20 10 7 19
12 17 21 17 19 1 17 13 21 22 50 14 23 11 17 35 22 20 13 18 18 21 25 21 28 30 45 58 31 11 8 7 21 13 22 27 16 20 19 15 6 38 32 28
15 17 16 18 17 7 18 6 6 20 42 45 22 30 32 27 33 26 27 24 33 30 35 37 30 40 11 26 46 59 31 29 36 37 35 6 12 18 17 28 28 35 37 47
21 21 20 16 16 14 15 12 10 9 9 28 29 30 24 39 37 25 36 25 36 43 34 43 47 31 28 34 48 30 19 44 36 54 52 48 57 58 61 57 60 57 63 58
23 21 20 22 22 16 19 7 7 11 13 16 10 29 38 38 40 32 34 29 32 27 23 22 32 17 11 9 12 15 11 24 45 59 59 52 53 65 68 67 67 70 58 59
30 26 26 25 23 20 12 12 22 11 13 7 2 11 12 12 4 5 14 8 3 16 12 25 33 32 34 32 23 34 19 18 27 36 16 43 36 49 70 70 59 52 54 53
27 34 31 30 26 30 32 33 22 8 11 9 8 4 8 10 9 10 10 18 6 6 40 45 34 36 44 43 41 41 33 37 29 40 40 54 31 15 30 52 52 45 22 33
37 31 31 33 35 32 39 32 29 14 8 8 18 24 15 23 16 18 20 16 16 22 24 8 12 10 12 22 41 42 37 35 23 26 40 41 40 14 15 17 9 26 25 27
44 41 44 41 35 38 39 43 38 27 9 14 41 18 15 4 5 8 25 24 15 16 3 6 9 8 7 10 17 13 30 22 18 26 19 23 13 24 47 28 16 22 26 25
51 51 50 46 44 45 44 51 43 41 24 46 39 14 13 13 7 5 9 10 4 7 5 5 6 10 9 8 7 9 8 9 15 24 26 14 24 16 31 10 16 22 25 30
55 55 54 52 48 45 48 58 52 49 35 50 36 30 31 16 15 8 5 9 4 3 3 7 7 6 6 3 5 4 10 8 7 8 8 26 46 18 11 22 31 28 45 44
60 54 57 54 51 51 44 57 52 53 54 40 31 30 41 57 57 49 26 20 13 16 5 1 4 3 2 8 8 8 8 12 7 8 9 46 60 26 48 15 16 26 29 37
60 57 54 54 53 50 48 53 52 50 54 55 64 57 76 69 76 73 41 43 44 42 37 9 4 9 7 6 10 6 9 21 7 4 14 21 56 62 46 20 35 44 43 50
54 57 58 56 53 54 49 52 55 55 24 11 38 46 57 65 57 50 77 83 51 44 33 16 8 6 20 9 11 13 15 2 16 20 29 47 49 41 33 46 51 42 51 56
55 59 58 58 54 52 51 56 61 61 56 7 10 29 34 26 30 49 54 68 68 54 22 10 10 10 6 6 6 15 31 30 22 29 42 39 48 53 48 51 37 44 54 65
55 53 53 51 53 50 49 44 71 74 64 17 4 22 39 49 64 72 73 65 62 45 19 11 18 43 17 9 8 24 50 65 73 46 66 55 63 62 51 28 41 60 57 69
52 49 47 47 45 46 54 13 11 29 55 16 5 7 18 47 60 61 55 56 33 36 23 15 21 35 25 11 20 32 57 58 65 56 50 40 46 22 32 53 52 65 77 83
51 48 47 46 46 50 61 71 43 31 28 19 6 6 6 17 16 16 37 31 33 23 21 13 13 25 19 14 26 59 63 54 41 21 28 31 44 50 51 57 67 79 89 94
47 44 43 45 54 53 53 53 40 54 44 7 9 8 10 16 16 15 14 18 6 15 11 13 16 11 12 19 32 23 12 6 16 24 33 35 38 56 63 70 80 74 93 94
40 35 32 18 22 51 28 15 20 20 23 23 7 17 7 25 21 10 7 11 6 6 9 8 8 12 45 6 2 3 7 16 24 29 29 48 60 61 75 78 80 76 85 97
34 18 23 20 28 30 20 14 14 16 6 17 20 39 11 21 7 7 15 6 5 6 9 11 3 6 4 2 2 8 11 18 24 29 36 42 51 68 81 93 93 95 96 90
28 19 22 28 17 12 10 9 7 7 10 7 8 21 36 18 18 6 11 7 7 9 3 7 5 6 5 8 13 17 23 31 36 41 50 53 58 65 74 80 87 85 82 83
37 22 18 16 15 13 13 15 5 1 7 15 16 5 16 13 20 3 6 9 10 6 4 8 8 8 8 21 27 31 37 43 49 54 57 63 69 70 69 76 75 72 75 77
22 18 14 13 7 9 8 11 9 10 7 10 15 5 6 6 4 6 7 8 7 4 7 13 1 8 25 31 37 46 52 54 59 63 65 67 67 70 68 65 62 65 69 67
21 15 13 9 6 8 16 23 18 7 10 8 4 3 7 4 7 7 4 4 8 11 11 3 7 24 32 40 44 49 54 59 63 63 64 65 61 59 61 55 56 52 52 54
13 5 8 3 7 2 9 11 10 6 10 9 5 4 5 7 4 8 11 9 11 7 4 11 24 33 37 41 43 47 52 55 58 57 56 55 52 49 51 52 44 40 39 43
13 2 18 17 21 14 7 9 13 9 10 5 3 9 16 3 4 6 7 9 3 6 16 19 26 32 37 39 43 46 48 50 48 48 44 43 39 40 43 41 35 31 29 27
Wind_Direction_500mb
303 303 295 294 284 274 248 227 234 216 194 175 214 232 224 224 199 219 240 247 247 258 269 253 231 213 224 218 189 232 206 159 229 267 284 265 215 261 240 238 239 215 231 266
328 325 333 322 301 252 192 223 231 226 203 221 222 226 245 228 243 227 205 234 230 228 252 269 241 255 266 268 247 237 183 251 275 262 281 237 215 225 235 258 273 239 242 258
297 300 309 323 329 206 208 234 246 198 213 232 242 238 239 238 243 246 234 253 255 263 262 260 268 270 243 256 254 257 255 247 241 252 246 255 225 225 232 236 249 256 241 251
277 275 284 300 304 315 211 224 239 235 215 232 243 251 265 266 262 254 265 262 253 258 265 275 266 277 309 289 280 265 233 251 240 248 253 254 257 260 258 252 256 253 257 258
276 280 266 274 285 288 220 251 277 315 292 299 251 227 239 249 261 261 258 271 272 286 281 297 293 277 241 265 316 336 325 280 273 260 251 240 238 248 256 262 261 259 262 266
266 269 268 267 269 267 255 246 273 285 271 310 97 241 251 265 13 334 298 324 352 261 290 319 302 279 256 249 265 285 269 284 292 280 310 308 281 262 252 254 261 261 264 270
259 263 264 259 254 256 251 251 268 254 259 229 211 266 356 306 336 280 276 317 298 305 319 318 301 272 256 250 247 239 264 269 269 279 285 269 294 313 256 250 267 287 349 28
257 261 254 255 258 257 251 244 242 245 270 272 279 284 291 311 319 288 284 250 257 299 332 335 342 318 331 255 248 250 230 248 267 259 265 279 271 346 3 339 9 13 29 20
257 254 257 249 246 245 244 244 245 237 257 238 250 246 238 207 212 281 259 274 293 310 180 88 207 230 255 291 317 336 308 294 279 299 294 284 64 350 331 314 210 19 28 2
256 256 258 255 255 252 243 247 240 234 246 258 244 231 236 222 193 212 275 267 234 233 183 147 174 225 221 252 227 316 355 326 263 275 278 274 37 347 344 306 314 329 336 332
261 253 254 253 250 252 244 244 240 235 244 253 237 245 232 221 213 171 213 346 286 42 166 150 237 207 200 266 207 267 291 301 304 310 291 264 5 356 355 288 291 305 323 327
258 256 252 251 247 254 249 250 249 246 243 252 258 247 254 246 249 253 232 227 183 228 118 262 54 320 300 164 265 229 264 206 217 194 262 314 317 302 309 280 301 302 302 310
258 259 256 253 250 248 244 250 253 244 241 255 257 252 264 264 254 252 237 244 242 242 250 189 213 222 148 187 232 204 251 259 244 341 262 280 284 293 290 290 316 312 311 310
261 264 260 254 251 247 240 246 251 245 240 242 259 266 263 269 260 249 239 250 247 248 241 226 199 195 202 220 239 221 228 243 244 265 274 277 277 281 289 298 303 291 305 309
257 258 257 251 250 249 252 254 253 245 232 280 282 274 262 259 262 245 246 244 240 239 238 214 224 224 200 242 250 247 240 251 254 260 265 276 283 289 283 302 288 299 309 307
262 260 258 256 249 248 247 256 250 242 239 256 290 281 264 261 251 245 247 245 240 226 220 228 234 238 214 218 220 247 251 247 249 259 272 278 276 285 301 271 289 304 300 304
265 258 256 249 242 238 230 228 224 186 215 233 243 266 265 250 241 239 235 236 221 217 231 223 233 240 216 238 250 261 256 258 265 272 275 276 283 273 284 300 300 303 306 308
263 260 256 252 254 249 242 233 205 232 193 203 233 248 324 214 196 198 218 211 215 221 229 236 230 252 234 246 247 257 265 271 269 262 262 272 287 295 299 302 308 311 310 312
263 261 258 256 246 234 232 241 237 230 227 223 197 164 234 198 228 204 191 191 187 214 211 224 216 224 225 228 254 281 291 319 296 295 299 299 297 303 307 312 314 311 309 309
261 255 242 222 206 215 222 186 197 208 220 228 224 194 231 209 190 213 129 181 212 214 234 185 216 238 246 25 78 89 355 319 321 331 322 318 313 314 313 313 312 308 305 307
242 227 229 207 179 170 172 194 198 195 215 208 209 205 210 206 166 197 202 193 196 209 248 162 253 275 155 349 324 339 327 323 323 315 309 307 305 309 312 312 310 312 313 308
230 240 204 175 174 181 186 189 176 205 210 227 172 212 198 185 184 146 187 191 181 234 118 105 258 235 88 357 332 324 321 319 315 315 314 313 309 310 309 310 313 314 311 311
235 219 195 172 181 197 199 171 260 227 215 190 183 206 178 166 197 170 167 184 220 94 89 215 218 96 1 344 334 324 323 324 320 319 318 317 317 317 318 317 317 317 317 316
208 190 199 187 196 220 178 175 181 187 200 186 168 136 180 165 126 194 174 216 116 191 198 230 170 335 336 334 331 326 324 326 324 324 322 320 320 322 322 321 323 321 313 320
213 195 202 184 156 71 112 123 125 135 141 142 118 90 223 226 219 198 179 208 236 202 221 167 283 323 326 325 324 323 323 323 321 322 321 321 324 322 321 326 324 319 320 327
205 159 127 155 111 32 87 116 120 142 152 132 117 159 188 236 208 200 216 138 219 228 182 298 319 324 322 321 323 322 321 320 319 321 323 324 324 323 323 324 324 325 330 333
150 146 111 110 86 100 133 125 153 162 162 179 155 188 212 18 219 230 195 208 197 195 310 324 328 320 323 326 323 324 324 323 324 327 326 322 325 329 322 324 333 337 341 343
Wind_Speed_850mb
22 26 27 29 35 33 28 20 9 20 40 17 12 25 11 12 13 31 23 12 21 30 26 24 23 17 22 14 4 10 13 10 12 33 21 9 13 31 32 19 20 10 7 19
12 17 21 17 19 1 17 13 21 22 50 14 23 11 17 35 22 20 13 18 18 21 25 21 28 30 45 58 31 11 8 7 21 13 22 27 16 20 19 15 6 38 32 28
15 17 16 18 17 7 18 6 6 20 42 45 22 30 32 27 33 26 27 24 33 30 35 37 30 40 11 26 46 59 31 29 36 37 35 6 12 18 17 28 28 35 37 47
21 21 20 16 16 14 15 12 10 9 9 28 29 30 24 39 37 25 36 25 36 43 34 43 47 31 28 34 48 30 19 44 36 54 52 48 57 58 61 57 60 57 63 58
23 21 20 22 22 16 19 7 7 11 13 16 10 29 38 38 40 32 34 29 32 27 23 22 32 17 11 9 12 15 11 24 45 59 59 52 53 65 68 67 67 70 58 59
30 26 26 25 23 20 12 12 22 11 13 7 2 11 12 12 4 5 14 8 3 16 12 25 33 32 34 32 23 34 19 18 27 36 16 43 36 49 70 70 59 52 54 53
27 34 31 30 26 30 32 33 22 8 11 9 8 4 8 10 9 10 10 18 6 6 40 45 34 36 44 43 41 41 33 37 29 40 40 54 31 15 30 52 52 45 22 33
37 31 31 33 35 32 39 32 29 14 8 8 18 24 15 23 16 18 20 16 16 22 24 8 12 10 12 22 41 42 37 35 23 26 40 41 40 14 15 17 9 26 25 27
44 41 44 41 35 38 39 43 38 27 9 14 41 18 15 4 5 8 25 24 15 16 3 6 9 8 7 10 17 13 30 22 18 26 19 23 13 24 47 28 16 22 26 25
51 51 50 46 44 45 44 51 43 41 24 46 39 14 13 13 7 5 9 10 4 7 5 5 6 10 9 8 7 9 8 9 15 24 26 14 24 16 31 10 16 22 25 30
55 55 54 52 48 45 48 58 52 49 35 50 36 30 31 16 15 8 5 9 4 3 3 7 7 6 6 3 5 4 10 8 7 8 8 26 46 18 11 22 31 28 45 44
60 54 57 54 51 51 44 57 52 53 54 40 31 30 41 57 57 49 26 20 13 16 5 1 4 3 2 8 8 8 8 12 7 8 9 46 60 26 48 15 16 26 29 37
60 57 54 54 53 50 48 53 52 50 54 55 64 57 76 69 76 73 41 43 44 42 37 9 4 9 7 6 10 6 9 21 7 4 14 21 56 62 46 20 35 44 43 50
54 57 58 56 53 54 49 52 55 55 24 11 38 46 57 65 57 50 77 83 51 44 33 16 8 6 20 9 11 13 15 2 16 20 29 47 49 41 33 46 51 42 51 56
55 59 58 58 54 52 51 56 61 61 56 7 10 29 34 26 30 49 54 68 68 54 22 10 10 10 6 6 6 15 31 30 22 29 42 39 48 53 48 51 37 44 54 65
55 53 53 51 53 50 49 44 71 74 64 17 4 22 39 49 64 72 73 65 62 45 19 11 18 43 17 9 8 24 50 65 73 46 66 55 63 62 51 28 41 60 57 69
52 49 47 47 45 46 54 13 11 29 55 16 5 7 18 47 60 61 55 56 33 36 23 15 21 35 25 11 20 32 57 58 65 56 50 40 46 22 32 53 52 65 77 83
51 48 47 46 46 50 61 71 43 31 28 19 6 6 6 17 16 16 37 31 33 23 21 13 13 25 19 14 26 59 63 54 41 21 28 31 44 50 51 57 67 79 89 94
47 44 43 45 54 53 53 53 40 54 44 7 9 8 10 16 16 15 14 18 6 15 11 13 16 11 12 19 32 23 12 6 16 24 33 35 38 56 63 70 80 74 93 94
40 35 32 18 22 51 28 15 20 20 23 23 7 17 7 25 21 10 7 11 6 6 9 8 8 12 45 6 2 3 7 16 24 29 29 48 60 61 75 78 80 76 85 97
34 18 23 20 28 30 20 14 14 16 6 17 20 39 11 21 7 7 15 6 5 6 9 11 3 6 4 2 2 8 11 18 24 29 36 42 51 68 81 93 93 95 96 90
28 19 22 28 17 12 10 9 7 7 10 7 8 21 36 18 18 6 11 7 7 9 3 7 5 6 5 8 13 17 23 31 36 41 50 53 58 65 74 80 87 85 82 83
37 22 18 16 15 13 13 15 5 1 7 15 16 5 16 13 20 3 6 9 10 6 4 8 8 8 8 21 27 31 37 43 49 54 57 63 69 70 69 76 75 72 75 77
22 18 14 13 7 9 8 11 9 10 7 10 15 5 6 6 4 6 7 8 7 4 7 13 1 8 25 31 37 46 52 54 59 63 65 67 67 70 68 65 62 65 69 67
21 15 13 9 6 8 16 23 18 7 10 8 4 3 7 4 7 7 4 4 8 11 11 3 7 24 32 40 44 49 54 59 63 63 64 65 61 59 61 55 56 52 52 54
13 5 8 3 7 2 9 11 10 6 10 9 5 4 5 7 4 8 11 9 11 7 4 11 24 33 37 41 43 47 52 55 58 57 56 55 52 49 51 52 44 40 39 43
13 2 18 17 21 14 7 9 13 9 10 5 3 9 16 3 4 6 7 9 3 6 16 19 26 32 37 39 43 46 48 50 48 48 44 43 39 40 43 41 35 31 29 27
Wind_Direction_850mb
303 303 295 294 284 274 248 227 234 216 194 175 214 232 224 224 199 219 240 247 247 258 269 253 231 213 224 218 189 232 206 159 229 267 284 265 215 261 240 238 239 215 231 266
328 325 333 322 301 252 192 223 231 226 203 221 222 226 245 228 243 227 205 234 230 228 252 269 241 255 266 268 247 237 183 251 275 262 281 237 215 225 235 258 273 239 242 258
297 300 309 323 329 206 208 234 246 198 213 232 242 238 239 238 243 246 234 253 255 263 262 260 268 270 243 256 254 257 255 247 241 252 246 255 225 225 232 236 249 256 241 251
277 275 284 300 304 315 211 224 239 235 215 232 243 251 265 266 262 254 265 262 253 258 265 275 266 277 309 289 280 265 233 251 240 248 253 254 257 260 258 252 256 253 257 258
276 280 266 274 285 288 220 251 277 315 292 299 251 227 239 249 261 261 258 271 272 286 281 297 293 277 241 265 316 336 325 280 273 260 251 240 238 248 256 262 261 259 262 266
266 269 268 267 269 267 255 246 273 285 271 310 97 241 251 265 13 334 298 324 352 261 290 319 302 279 256 249 265 285 269 284 292 280 310 308 281 262 252 254 261 261 264 270
259 263 264 259 254 256 251 251 268 254 259 229 211 266 356 306 336 280 276 317 298 305 319 318 301 272 256 250 247 239 264 269 269 279 285 269 294 313 256 250 267 287 349 28
257 261 254 255 258 257 251 244 242 245 270 272 279 284 291 311 319 288 284 250 257 299 332 335 342 318 331 255 248 250 230 248 267 259 265 279 271 346 3 339 9 13 29 20
257 254 257 249 246 245 244 244 245 237 257 238 250 246 238 207 212 281 259 274 293 310 180 88 207 230 255 291 317 336 308 294 279 299 294 284 64 350 331 314 210 19 28 2
256 256 258 255 255 252 243 247 240 234 246 258 244 231 236 222 193 212 275 267 234 233 183 147 174 225 221 252 227 316 355 326 263 275 278 274 37 347 344 306 314 329 336 332
261 253 254 253 250 252 244 244 240 235 244 253 237 245 232 221 213 171 213 346 286 42 166 150 237 207 200 266 207 267 291 301 304 310 291 264 5 356 355 288 291 305 323 327
258 256 252 251 247 254 249 250 249 246 243 252 258 247 254 246 249 253 232 227 183 228 118 262 54 320 300 164 265 229 264 206 217 194 262 314 317 302 309 280 301 302 302 310
258 259 256 253 250 248 244 250 253 244 241 255 257 252 264 264 254 252 237 244 242 242 250 189 213 222 148 187 232 204 251 259 244 341 262 280 284 293 290 290 316 312 311 310
261 264 260 254 251 247 240 246 251 245 240 242 259 266 263 269 260 249 239 250 247 248 241 226 199 195 202 220 239 221 228 243 244 265 274 277 277 281 289 298 303 291 305 309
257 258 257 251 250 249 252 254 253 245 232 280 282 274 262 259 262 245 246 244 240 239 238 214 224 224 200 242 250 247 240 251 254 260 265 276 283 289 283 302 288 299 309 307
262 260 258 256 249 248 247 256 250 242 239 256 290 281 264 261 251 245 247 245 240 226 220 228 234 238 214 218 220 247 251 247 249 259 272 278 276 285 301 271 289 304 300 304
265 258 256 249 242 238 230 228 224 186 215 233 243 266 265 250 241 239 235 236 221 217 231 223 233 240 216 238 250 261 256 258 265 272 275 276 283 273 284 300 300 303 306 308
263 260 256 252 254 249 242 233 205 232 193 203 233 248 324 214 196 198 218 211 215 221 229 236 230 252 234 246 247 257 265 271 269 262 262 272 287 295 299 302 308 311 310 312
263 261 258 256 246 234 232 241 237 230 227 223 197 164 234 198 228 204 191 191 187 214 211 224 216 224 225 228 254 281 291 319 296 295 299 299 297 303 307 312 314 311 309 309
261 255 242 222 206 215 222 186 197 208 220 228 224 194 231 209 190 213 129 181 212 214 234 185 216 238 246 25 78 89 355 319 321 331 322 318 313 314 313 313 312 308 305 307
242 227 229 207 179 170 172 194 198 195 215 208 209 205 210 206 166 197 202 193 196 209 248 162 253 275 155 349 324 339 327 323 323 315 309 307 305 309 312 312 310 312 313 308
230 240 204 175 174 181 186 189 176 205 210 227 172 212 198 185 184 146 187 191 181 234 118 105 258 235 88 357 332 324 321 319 315 315 314 313 309 310 309 310 313 314 311 311
235 219 195 172 181 197 199 171 260 227 215 190 183 206 178 166 197 170 167 184 220 94 89 215 218 96 1 344 334 324 323 324 320 319 318 317 317 317 318 317 317 317 317 316
208 190 199 187 196 220 178 175 181 187 200 186 168 136 180 165 126 194 174 216 116 191 198 230 170 335 336 334 331 326 324 326 324 324 322 320 320 322 322 321 323 321 313 320
213 195 202 184 156 71 112 123 125 135 141 142 118 90 223 226 219 198 179 208 236 202 221 167 283 323 326 325 324 323 323 323 321 322 321 321 324 322 321 326 324 319 320 327
205 159 127 155 111 32 87 116 120 142 152 132 117 159 188 236 208 200 216 138 219 228 182 298 319 324 322 321 323 322 321 320 319 321 323 324 324 323 323 324 324 325 330 333
150 146 111 110 86 100 133 125 153 162 162 179 155 188 212 18 219 230 195 208 197 195 310 324 328 320 323 326 323 324 324 323 324 327 326 322 325 329 322 324 333 337 341 343